Location: Br�znic
(45.9167°N, 22.6500°E)
Time: 19:33:48
(UTC+00:00)

Resurs 01 Rocket - Pass Details

Date: 03 March 2021
Orbit: 635 x 643 km, 98.0° (Epoch: 13 April)

Event Time Altitude Azimuth Distance (km) Brightness Sun altitude
Exits shadow 19:12:41 29° 341° (NNW) 1,176 3.3 -30.4°
Drops below altitude 10° 19:14:52 10° 345° (NNW) 2,033 4.6 -30.7°
Sets 19:17:05 0° 346° (NNW) 2,948 5.5 -31.1°
